Location: Cedar Ridge
(38.0658°N, 120.2769°W)
Time: 22:51:17
(UTC+00:00)

Cosmos 1867 - Pass Details

Date: 10 September 2024
Orbit: 772 x 802 km, 65.0° (Epoch: 12 October)

Event Time Altitude Azimuth Distance (km) Brightness Sun altitude
Exits shadow 12:03:56 21° 199° (SSW) 1,728 5.0 -18.9°
Maximum altitude 12:07:39 73° 118° (ESE) 833 3.7 -18.3°
Drops below altitude 10° 12:13:06 10° 34° (NE) 2,377 6.9 -17.3°
Sets 12:15:32 0° 33° (NNE) 3,313 7.7 -16.8°
